{"data":{"norad_id":53860,"intl_designator":"2022-114AU","name":"STARLINK-4799","alt_names":[],"object_type":"PAYLOAD","status":"ACTIVE","operator":null,"country":"US","launch_date":"2022-09-19","launch_site_code":"AFETR","launch_vehicle":null,"mission":null,"orbit_class":"UNKNOWN","rcs_meters":null,"size_class":null,"mass_kg":null,"dimensions":null,"purposes":["comms"],"wikipedia_slug":null,"has_3d_model":false,"image_url":null,"decayed_at":null,"tle_current":{"epoch":"2026-09-20T22:16:31.882656Z","epoch_age_seconds":47133,"freshness":"FRESH","line1":"1 53860U 22114AU  26263.92814679  .00000240  00000+0  19490-4 0  9999","line2":"2 53860  53.1591 116.6693 0001302  85.4164 274.6987 15.31700285222498","mean_motion":15.31700285,"eccentricity":0.0001302,"inclination_deg":53.1591,"raan_deg":116.6693,"arg_perigee_deg":85.4164,"mean_anomaly_deg":274.6987,"bstar":1.949e-5,"rev_number":22249,"period_min":94.013170468268,"perigee_km":469.84742198145,"apogee_km":471.63086932978,"semimajor_km":6848.8761456556,"source":"CELESTRAK","updated_at":"2026-09-21T09:00:33.025111Z"}}}